Location: Monks Wood National Nature Reserve
(52.4000°N, 0.2500°W)
Time: 21:43:43
(UTC+00:00)

Daily predictions for brighter satellites

Satellite Brightness Start Highest point End
(mag) Time Altitude Azimuth Time Altitude Azimuth Time Altitude Azimuth
Cosmos 2278 Rocket 2.2 16:51:39 10° NNW 16:57:19 64° NE 17:02:57 10° SE
COSMO-SKYMED 1 4.2 16:57:36 10° NE 17:00:12 15° E 17:02:47 10° SE
Cosmos 2219 Rocket 2.3 16:55:44 10° SSW 17:01:20 83° WNW 17:07:00 10° NNE
ISS -1.5 17:01:14 10° S 17:03:07 14° SE 17:05:01 10° ESE
ARGOS Delta rocket 3.9 16:58:51 10° SSE 17:03:19 50° ENE 17:07:38 10° N
Cosmos 2084 Rocket 4.5 16:59:28 10° NW 17:03:25 48° SW 17:07:17 10° SSE
CZ-4C R/B 3.7 17:02:49 10° SE 17:04:58 13° ESE 17:07:18 10° ENE
Cosmos 405 Rocket 4.5 17:01:57 10° NNW 17:05:15 34° W 17:08:32 10° SSW
CSL-04 DEB 4.3 17:03:27 10° SSE 17:07:12 55° ENE 17:10:55 10° N
Meteor 1-21 4.5 17:04:15 10° SSE 17:09:36 49° E 17:15:02 10° NNE
Cosmos 1758 3.8 17:05:47 10° NNW 17:09:37 62° W 17:13:26 10° S
USA 306 1.5 17:08:32 10° WNW 17:10:27 51° N 17:12:55 11° E
SL-14 R/B 3.3 17:07:56 10° SSW 17:11:42 79° W 17:15:31 10° N
CORIOLIS 4.2 17:06:43 10° SSE 17:12:09 85° ENE 17:17:38 10° NNW
Cosmos 1763 Rocket 3.9 17:07:34 10° S 17:12:29 44° ESE 17:17:22 10° NE
Cosmos 1733 Rocket 3.4 17:09:04 10° N 17:13:15 41° ENE 17:17:26 10° SE
Spot 4 Rocket 4.0 17:08:35 10° SSE 17:13:41 71° ENE 17:18:49 10° NNW
YAOGAN 1 3.8 17:11:25 10° ESE 17:14:35 21° ENE 17:17:46 10° NNE
Cosmos 540 Rocket 4.0 17:13:30 10° S 17:18:15 39° ESE 17:23:00 10° NE
Landsat 7 4.3 17:16:21 10° SE 17:20:35 35° ENE 17:24:51 10° N
Cosmos 2322 3.7 17:15:03 10° SSW 17:20:45 77° ESE 17:26:30 10° NNE
USA 215 3.3 17:16:17 10° ENE 17:22:52 83° NNW 17:29:25 10° WSW
Cosmos 2279 Rocket 4.0 17:19:10 10° N 17:25:23 69° ENE 17:31:32 10° SSE
Meteor 1-12 Rocket 4.5 17:20:26 10° NNW 17:26:10 78° W 17:31:56 10° S
Cosmos 2228 Rocket 3.7 17:22:04 10° SSE 17:26:12 36° E 17:30:23 10° NNE
NOSS 8 (A) 4.2 17:24:34 10° NW 17:27:27 81° SW 17:30:44 10° SE
Cosmos 1656 Rocket 4.4 17:22:43 10° NNW 17:27:32 30° NE 17:32:22 10° ESE
Cosmos 1980 Rocket 4.3 17:24:56 10° NW 17:27:57 14° NNW 17:30:58 10° NNE
Cosmos 1898 Rocket 3.6 17:22:49 10° NNW 17:28:01 54° ENE 17:33:12 10° SE
Aureole 1 Rocket 4.4 17:24:12 10° NNW 17:31:59 70° ENE 17:39:02 10° SE
PSLV R/B 3.4 17:30:21 10° SSE 17:34:25 85° W 17:38:32 10° NNW
Okean 1-7 3.9 17:36:20 10° SE 17:39:56 27° E 17:43:21 11° NNE
Cosmos 1980 4.1 17:34:44 10° S 17:40:03 44° ESE 17:44:57 12° NE
SL-16 R/B 3.7 17:37:13 10° SE 17:40:11 15° E 17:40:55 14° E
Cosmos 1953 2.0 17:38:26 10° N 17:42:11 76° ENE 17:45:54 10° SSE
SMAP 3.9 17:39:02 10° S 17:43:35 54° W 17:48:11 10° NNW
Meteor 1-23 Rocket 4.5 17:39:02 10° SSW 17:44:37 72° WNW 17:50:13 10° N
SKYMED 2 4.0 17:44:34 10° NNE 17:48:41 39° E 17:52:46 10° SSE
NOSS 0 Rocket 3.9 17:43:48 10° SSW 17:49:52 67° ESE 17:55:40 12° NE
Cosmos 1818 3.7 17:45:17 10° NW 17:50:41 57° NE 17:56:04 10° ESE
ATLAS 2AS CENTAUR R/B 2.7 17:45:24 10° NW 17:52:14 61° NE 17:58:51 10° ESE
SL-16 R/B 4.1 17:48:15 10° N 17:53:39 32° NW 17:59:03 10° WSW
Cosmos 2369 Rocket 2.9 17:48:40 10° NNW 17:53:40 32° NE 17:56:54 19° E
Resurs 01 Rocket 3.5 17:57:26 14° NNE 17:57:26 14° NNE 17:58:34 10° NNE
COSMOS 2428 2.9 17:51:28 10° SW 17:57:09 75° WNW 18:02:53 10° NNE
ACS3 Solar Sail 1.9 17:51:11 10° SSE 17:57:27 60° ENE 18:03:44 10° N
Cosmos 372 Rocket 3.8 17:53:00 10° NNW 17:58:07 83° ENE 18:03:12 10° SSE
IGS 5A 4.0 17:54:17 10° S 17:58:15 60° W 18:02:15 10° NNW
Cosmos 2333 Rocket 3.8 17:54:07 10° W 17:58:54 27° NW 18:03:44 10° NNE
DNEPR-1 R/B 4.4 17:58:07 10° NW 18:02:58 56° SW 18:07:12 10° SSE
BREEZE-M DEB (TANK) 3.8 17:56:07 10° WSW 18:05:21 61° S 18:07:22 25° ESE
NOSS 8 (F) 4.3 18:01:32 10° SW 18:05:25 77° SE 18:06:43 34° NE
Cosmos 1908 Rocket 3.7 18:02:08 10° N 18:06:22 46° ENE 18:10:31 10° SSE
Cosmos 2322 Rocket 4.1 18:03:51 10° W 18:08:13 23° NW 18:12:38 10° NNE
Cosmos 2360 Rocket 4.0 18:06:31 10° W 18:11:06 25° NW 18:15:43 10° NNE
EO 1 Delta rocket 3.8 18:07:52 10° NNE 18:12:37 58° E 18:17:11 10° S
Meteor 1-31 Rocket 2.4 18:10:04 10° SSE 18:13:37 74° ENE 18:17:12 10° N
Okean 3 3.5 18:09:57 10° SSW 18:14:03 75° WNW 18:18:12 10° N
Cosmos 1707 Rocket 3.6 18:10:25 10° SSW 18:14:51 82° W 18:19:19 10° N
Cosmos 2297 4.0 18:11:24 10° NNW 18:16:58 47° NE 18:20:17 23° ESE
Okean 2 3.3 18:13:53 10° SSW 18:17:50 83° WNW 18:21:50 10° N
Cosmos 1937 Rocket 3.4 18:12:57 10° NNW 18:18:08 89° WSW 18:23:18 10° SSE
SL-16 R/B 4.3 18:15:08 10° WNW 18:18:46 17° NNW 18:22:26 10° NNE
CZ-2C R/B 2.4 18:22:18 53° E 18:22:29 53° ENE 18:25:48 10° N
Cosmos 858 Rocket 4.4 18:17:28 10° NNW 18:22:42 79° ENE 18:27:55 10° SSE
Cosmos 2026 Rocket 4.3 18:17:49 10° SSE 18:23:44 42° E 18:29:38 10° NNE
BREEZE-M DEB (TANK) 3.9 18:12:36 10° SW 18:26:41 52° SSE 18:28:56 30° ESE
Cosmos 1943 Rocket 3.4 18:21:30 10° NW 18:26:51 43° WSW 18:32:07 10° S
RESURS DK-1 4.1 18:24:02 10° NW 18:27:41 34° WSW 18:31:19 10° S
Cosmos 1428 Rocket 4.4 18:24:24 10° S 18:30:28 60° E 18:36:32 10° NNE
YAOGAN 3 4.4 18:27:25 10° SSE 18:31:40 78° ENE 18:35:57 10° NNW
Cosmos 1862 Rocket 4.0 18:28:28 10° SSW 18:32:48 61° WNW 18:37:12 10° N
BlueWalker 3 1.9 18:29:29 10° WNW 18:33:07 68° SSW 18:33:53 50° SE
Cosmos 2237 Rocket 2.2 18:28:22 10° SSW 18:34:04 87° WNW 18:37:58 22° NNE
COSMO-SKYMED 1 2.7 18:32:35 10° NNE 18:36:55 75° WNW 18:41:14 10° SSW
ISS -3.1 18:36:03 10° SW 18:39:01 46° S 18:39:01 46° S
CZ-4B R/B 4.1 18:35:56 10° S 18:39:29 58° WSW 18:43:00 10° NNW
Cosmos 2278 Rocket 4.3 18:36:16 10° NW 18:41:00 28° WSW 18:45:43 10° SSW
NOAA 6 4.3 18:36:23 10° S 18:41:28 68° WSW 18:46:37 10° NNW
USA 306 3.3 18:39:21 10° WNW 18:40:49 34° WNW 18:40:49 34° WNW
Cosmos 1782 Rocket 3.6 18:37:55 10° N 18:41:42 51° NE 18:41:42 51° NE
Cosmos 2344 3.6 18:36:43 10° SW 18:44:07 73° NW 18:48:48 25° NE
Cosmos 2219 Rocket 4.0 18:41:38 10° W 18:46:08 24° NW 18:50:23 11° NNE
YAOGAN 1 3.1 18:45:55 10° S 18:50:08 59° W 18:54:23 10° NNW
YAOGAN 11 4.1 18:51:31 56° SE 18:51:31 56° SE 18:55:10 10° S
CZ-4C R/B 1.8 18:47:22 10° SW 18:51:53 75° SE 18:53:04 53° ENE
Nadezhda 4 Rocket 4.1 18:47:54 10° SSW 18:54:01 76° WNW 19:00:14 10° N
ATLAS 5 CENTAUR R/B 2.9 18:53:33 10° SSW 18:54:38 19° SSW 18:54:38 19° SSW
Cosmos 2195 Rocket 4.3 18:52:22 10° S 18:58:33 81° E 19:04:44 10° NNE
Meteor 1-24 Rocket 4.0 18:52:58 10° SSE 18:58:08 48° ESE 18:58:08 48° ESE
CZ-4B R/B 4.2 19:00:45 30° NNE 19:00:45 30° NNE 19:03:56 10° N
SPOT 1/Viking Rocket 3.6 18:56:16 10° S 19:01:26 76° WSW 19:06:36 10° NNW
Cosmos 1703 Rocket 3.5 18:57:05 10° S 19:01:32 89° W 19:02:12 65° N
USA 215 3.4 19:03:32 42° NE 19:05:40 61° N 19:12:05 10° W
Resurs 1-3 3.9 19:01:37 10° S 19:05:54 66° WSW 19:10:13 10° NNW
Meteor 2-5 Rocket 4.3 19:03:36 10° S 19:07:38 42° SE 19:07:38 42° SE
Cosmos 1656 Rocket 3.9 19:06:05 10° NW 19:11:32 67° WSW 19:14:50 24° SSE
Cosmos 1703 4.4 19:08:20 10° SSW 19:10:32 33° SW 19:10:32 33° SW
Cosmos 841 Rocket 3.7 19:07:56 10° SW 19:13:10 68° WNW 19:15:03 39° N
Cosmos 1980 Rocket 4.4 19:12:16 10° NNW 19:14:36 12° N 19:14:42 12° N
Okean 1-7 4.4 19:12:57 10° SW 19:16:57 37° WNW 19:19:52 17° N
CZ-4 R/B 4.1 19:24:01 10° NNW 19:24:01 10° NNW 19:24:02 10° NNW
Cosmos 1300 Rocket 4.4 19:16:47 10° NNW 19:19:43 42° NNW 19:19:43 42° NNW
Cosmos 1553 Rocket 3.8 19:16:58 10° N 19:23:10 77° E 19:23:51 68° SE
SL-16 R/B 2.1 19:17:39 10° SSW 19:22:50 70° SSE 19:22:50 70° SSE
ADEOS 3.6 19:29:31 76° SW 19:29:48 79° WSW 19:35:03 10° NNW
Resurs 01 Rocket 3.7 19:34:51 19° NNW 19:34:51 19° NNW 19:36:08 10° NNW
Cosmos 2369 Rocket 2.4 19:32:33 10° NW 19:38:06 64° WSW 19:38:45 59° SSW
Cosmos 1092 Rocket 4.2 19:33:54 10° SSW 19:40:03 68° WNW 19:46:18 10° N
ACS3 Solar Sail 3.5 19:35:44 10° SSW 19:41:22 32° W 19:47:02 10° NNW
ATLAS 2AS CENTAUR R/B 3.5 19:36:36 10° NW 19:42:59 45° WSW 19:46:35 24° S
Cosmos 2333 Rocket 4.5 19:42:41 10° NW 19:45:16 13° NNW 19:46:33 12° N
Cosmos 2237 Rocket 4.0 20:14:16 10° W 20:18:56 25° NW 20:19:48 24° NNW
CZ-4C R/B 4.1 20:36:02 10° W 20:38:07 23° WNW 20:38:07 23° WNW
USA 215 4.3 20:50:53 41° NW 20:50:53 41° NW 20:54:56 10° WNW
